sat.trackr.live / text

‹ back to catalog

STARLINK-33711

NORAD 63404 · 2025-065F

PAYLOAD ACTIVE UNKNOWN

§ Identity

Operator
Country
US
Launch date
2025-03-31
Launch site
AFETR
Launch vehicle
Mass (kg)
RCS (m²)

Purposes: comms

External: N2YO · Heavens-Above · Gunter

§ Orbital elements

Epoch: 2026-09-19T21:05:03.744384Z

Period
94.27 min
Inclination
42.9993°
Eccentricity
0.0001347
Mean motion
15.27589361 rev/d
Perigee alt
482.1 km
Apogee alt
483.9 km
Semi-major
6,861.2 km
B*
3.1160e-4
RAAN
89.9724°
Arg perigee
269.8519°
Mean anomaly
90.2178°
Rev number
8,254

§ Raw data

STARLINK-337111 63404U 25065F   26262.87851556  .00008325  00000+0  31160-3 0  99992 63404  42.9993  89.9724 0001347 269.8519  90.2178 15.27589361 82542

JSON: /api/v1/satellites/63404 · /tle

For live sub-satellite position, see the globe view (requires WebGL).

§ Visibility from observer

Set your observer location to see the next 7 days of passes ≥ 10°. The values pass through the URL so the page stays shareable.

No JS? Fill the form by hand. The geolocation button needs JavaScript.